owner,sensor,date,latitude,longitude,air_temperature,qcFlag 
LUMCON,ioos:station:LUMCON:wisl1:1,2019-04-01T00:00:00Z,29.1144,-90.1840,75.1,1111122 
LUMCON,ioos:station:LUMCON:wisl1:1,2019-04-01T00:15:00Z,29.1144,-90.1840,73.6,1111122 
LUMCON,ioos:station:LUMCON:wisl1:1,2019-04-01T00:30:00Z,29.1144,-90.1840,76.8,1111122 
LUMCON,ioos:station:LUMCON:wisl1:1,2019-04-01T00:45:00Z,29.1144,-90.1840,77.3,1111122 
LUMCON,ioos:station:LUMCON:wisl1:1,2019-04-01T01:00:00Z,29.1144,-90.1840,73.9,1111122 
LUMCON,ioos:station:LUMCON:wisl1:1,2019-04-01T01:15:00Z,29.1144,-90.1840,73.7,1111122 
LUMCON,ioos:station:LUMCON:wisl1:1,2019-04-01T01:30:00Z,29.1144,-90.1840,70.3,1111122 
LUMCON,ioos:station:LUMCON:wisl1:1,2019-04-01T01:45:00Z,29.1144,-90.1840,73.5,1111122 
LUMCON,ioos:station:LUMCON:wisl1:1,2019-04-01T02:00:00Z,29.1144,-90.1840,71.0,1111122 
LUMCON,ioos:station:LUMCON:wisl1:1,2019-04-01T02:15:00Z,29.1144,-90.1840,69.0,1111122 
LUMCON,ioos:station:LUMCON:wisl1:1,2019-04-01T02:30:00Z,29.1144,-90.1840,68.5,1111122 
LUMCON,ioos:station:LUMCON:wisl1:1,2019-04-01T02:45:00Z,29.1144,-90.1840,70.1,1111122 
LUMCON,ioos:station:LUMCON:wisl1:1,2019-04-01T03:00:00Z,29.1144,-90.1840,68.3,1111122 
LUMCON,ioos:station:LUMCON:wisl1:1,2019-04-01T03:15:00Z,29.1144,-90.1840,69.2,1111122 
LUMCON,ioos:station:LUMCON:wisl1:1,2019-04-01T03:30:00Z,29.1144,-90.1840,69.2,1111122 
LUMCON,ioos:station:LUMCON:wisl1:1,2019-04-01T03:45:00Z,29.1144,-90.1840,70.0,1111122 
LUMCON,ioos:station:LUMCON:wisl1:1,2019-04-01T04:00:00Z,29.1144,-90.1840,72.2,1111122 
LUMCON,ioos:station:LUMCON:wisl1:1,2019-04-01T04:15:00Z,29.1144,-90.1840,67.3,1111122 
LUMCON,ioos:station:LUMCON:wisl1:1,2019-04-01T04:30:00Z,29.1144,-90.1840,66.7,1111122 
LUMCON,ioos:station:LUMCON:wisl1:1,2019-04-01T04:45:00Z,29.1144,-90.1840,66.8,1111122 
LUMCON,ioos:station:LUMCON:wisl1:1,2019-04-01T05:00:00Z,29.1144,-90.1840,66.8,1111122 
LUMCON,ioos:station:LUMCON:wisl1:1,2019-04-01T05:15:00Z,29.1144,-90.1840,66.6,1111122 
LUMCON,ioos:station:LUMCON:wisl1:1,2019-04-01T05:30:00Z,29.1144,-90.1840,66.2,1111122 
LUMCON,ioos:station:LUMCON:wisl1:1,2019-04-01T05:45:00Z,29.1144,-90.1840,67.8,1111122 
LUMCON,ioos:station:LUMCON:wisl1:1,2019-04-01T06:00:00Z,29.1144,-90.1840,69.2,1111122 
LUMCON,ioos:station:LUMCON:wisl1:1,2019-04-01T06:15:00Z,29.1144,-90.1840,67.6,1111122 
LUMCON,ioos:station:LUMCON:wisl1:1,2019-04-01T06:30:00Z,29.1144,-90.1840,68.6,1111122 
LUMCON,ioos:station:LUMCON:wisl1:1,2019-04-01T06:45:00Z,29.1144,-90.1840,68.6,1111122 
LUMCON,ioos:station:LUMCON:wisl1:1,2019-04-01T07:00:00Z,29.1144,-90.1840,69.9,1111122 
LUMCON,ioos:station:LUMCON:wisl1:1,2019-04-01T07:15:00Z,29.1144,-90.1840,69.9,1111122 
LUMCON,ioos:station:LUMCON:wisl1:1,2019-04-01T07:30:00Z,29.1144,-90.1840,69.5,1111122 
LUMCON,ioos:station:LUMCON:wisl1:1,2019-04-01T07:45:00Z,29.1144,-90.1840,70.7,1111122 
LUMCON,ioos:station:LUMCON:wisl1:1,2019-04-01T08:00:00Z,29.1144,-90.1840,69.5,1111122 
LUMCON,ioos:station:LUMCON:wisl1:1,2019-04-01T08:15:00Z,29.1144,-90.1840,69.3,1111122 
LUMCON,ioos:station:LUMCON:wisl1:1,2019-04-01T08:30:00Z,29.1144,-90.1840,71.2,1111122 
LUMCON,ioos:station:LUMCON:wisl1:1,2019-04-01T08:45:00Z,29.1144,-90.1840,71.5,1111122 
LUMCON,ioos:station:LUMCON:wisl1:1,2019-04-01T09:00:00Z,29.1144,-90.1840,68.5,1111122 
LUMCON,ioos:station:LUMCON:wisl1:1,2019-04-01T09:15:00Z,29.1144,-90.1840,69.6,1111122 
LUMCON,ioos:station:LUMCON:wisl1:1,2019-04-01T09:30:00Z,29.1144,-90.1840,69.9,1111122 
LUMCON,ioos:station:LUMCON:wisl1:1,2019-04-01T09:45:00Z,29.1144,-90.1840,69.3,1111122 
LUMCON,ioos:station:LUMCON:wisl1:1,2019-04-01T10:00:00Z,29.1144,-90.1840,70.0,1111122 
LUMCON,ioos:station:LUMCON:wisl1:1,2019-04-01T10:15:00Z,29.1144,-90.1840,67.5,1111122 
LUMCON,ioos:station:LUMCON:wisl1:1,2019-04-01T10:30:00Z,29.1144,-90.1840,68.5,1111122 
LUMCON,ioos:station:LUMCON:wisl1:1,2019-04-01T10:45:00Z,29.1144,-90.1840,70.1,1111122 
LUMCON,ioos:station:LUMCON:wisl1:1,2019-04-01T11:00:00Z,29.1144,-90.1840,68.7,1111122 
LUMCON,ioos:station:LUMCON:wisl1:1,2019-04-01T11:15:00Z,29.1144,-90.1840,68.2,1111122 
LUMCON,ioos:station:LUMCON:wisl1:1,2019-04-01T11:30:00Z,29.1144,-90.1840,70.0,1111122 
LUMCON,ioos:station:LUMCON:wisl1:1,2019-04-01T11:45:00Z,29.1144,-90.1840,68.3,1111122 
LUMCON,ioos:station:LUMCON:wisl1:1,2019-04-01T12:00:00Z,29.1144,-90.1840,67.5,1111122 
LUMCON,ioos:station:LUMCON:wisl1:1,2019-04-01T12:15:00Z,29.1144,-90.1840,71.4,1111122 
LUMCON,ioos:station:LUMCON:wisl1:1,2019-04-01T12:30:00Z,29.1144,-90.1840,70.1,1111122 
LUMCON,ioos:station:LUMCON:wisl1:1,2019-04-01T12:45:00Z,29.1144,-90.1840,69.7,1111122 
LUMCON,ioos:station:LUMCON:wisl1:1,2019-04-01T13:00:00Z,29.1144,-90.1840,66.8,1111122 
LUMCON,ioos:station:LUMCON:wisl1:1,2019-04-01T13:15:00Z,29.1144,-90.1840,65.7,1111122 
LUMCON,ioos:station:LUMCON:wisl1:1,2019-04-01T13:30:00Z,29.1144,-90.1840,67.6,1111122 
LUMCON,ioos:station:LUMCON:wisl1:1,2019-04-01T13:45:00Z,29.1144,-90.1840,69.7,1111122 
LUMCON,ioos:station:LUMCON:wisl1:1,2019-04-01T14:00:00Z,29.1144,-90.1840,71.0,1111122 
LUMCON,ioos:station:LUMCON:wisl1:1,2019-04-01T14:15:00Z,29.1144,-90.1840,67.8,1111122 
LUMCON,ioos:station:LUMCON:wisl1:1,2019-04-01T14:30:00Z,29.1144,-90.1840,70.8,1111122 
LUMCON,ioos:station:LUMCON:wisl1:1,2019-04-01T14:45:00Z,29.1144,-90.1840,69.9,1111122 
LUMCON,ioos:station:LUMCON:wisl1:1,2019-04-01T15:00:00Z,29.1144,-90.1840,67.3,1111122 
LUMCON,ioos:station:LUMCON:wisl1:1,2019-04-01T15:15:00Z,29.1144,-90.1840,67.9,1111122 
LUMCON,ioos:station:LUMCON:wisl1:1,2019-04-01T15:30:00Z,29.1144,-90.1840,66.5,1111122 
LUMCON,ioos:station:LUMCON:wisl1:1,2019-04-01T15:45:00Z,29.1144,-90.1840,67.6,1111122 
LUMCON,ioos:station:LUMCON:wisl1:1,2019-04-01T16:00:00Z,29.1144,-90.1840,64.0,1111122 
LUMCON,ioos:station:LUMCON:wisl1:1,2019-04-01T16:15:00Z,29.1144,-90.1840,63.4,1111122 
LUMCON,ioos:station:LUMCON:wisl1:1,2019-04-01T16:30:00Z,29.1144,-90.1840,63.7,1111122 
LUMCON,ioos:station:LUMCON:wisl1:1,2019-04-01T16:45:00Z,29.1144,-90.1840,63.5,1111122 
LUMCON,ioos:station:LUMCON:wisl1:1,2019-04-01T17:00:00Z,29.1144,-90.1840,61.6,1111122 
LUMCON,ioos:station:LUMCON:wisl1:1,2019-04-01T17:15:00Z,29.1144,-90.1840,63.8,1111122 
LUMCON,ioos:station:LUMCON:wisl1:1,2019-04-01T17:30:00Z,29.1144,-90.1840,62.9,1111122 
LUMCON,ioos:station:LUMCON:wisl1:1,2019-04-01T17:45:00Z,29.1144,-90.1840,65.0,1111122 
LUMCON,ioos:station:LUMCON:wisl1:1,2019-04-01T18:00:00Z,29.1144,-90.1840,63.7,1111122 
LUMCON,ioos:station:LUMCON:wisl1:1,2019-04-01T18:15:00Z,29.1144,-90.1840,63.3,1111122 
LUMCON,ioos:station:LUMCON:wisl1:1,2019-04-01T18:30:00Z,29.1144,-90.1840,64.1,1111122 
LUMCON,ioos:station:LUMCON:wisl1:1,2019-04-01T18:45:00Z,29.1144,-90.1840,64.6,1111122 
LUMCON,ioos:station:LUMCON:wisl1:1,2019-04-01T19:00:00Z,29.1144,-90.1840,63.8,1111122 
LUMCON,ioos:station:LUMCON:wisl1:1,2019-04-01T19:15:00Z,29.1144,-90.1840,65.3,1111122 
LUMCON,ioos:station:LUMCON:wisl1:1,2019-04-01T19:30:00Z,29.1144,-90.1840,61.9,1111122 
LUMCON,ioos:station:LUMCON:wisl1:1,2019-04-01T19:45:00Z,29.1144,-90.1840,61.1,1111122 
LUMCON,ioos:station:LUMCON:wisl1:1,2019-04-01T20:00:00Z,29.1144,-90.1840,64.0,1111122 
LUMCON,ioos:station:LUMCON:wisl1:1,2019-04-01T20:15:00Z,29.1144,-90.1840,62.0,1111122 
LUMCON,ioos:station:LUMCON:wisl1:1,2019-04-01T20:30:00Z,29.1144,-90.1840,60.3,1111122 
LUMCON,ioos:station:LUMCON:wisl1:1,2019-04-01T20:45:00Z,29.1144,-90.1840,62.8,1111122 
LUMCON,ioos:station:LUMCON:wisl1:1,2019-04-01T21:00:00Z,29.1144,-90.1840,61.1,1111122 
LUMCON,ioos:station:LUMCON:wisl1:1,2019-04-01T21:15:00Z,29.1144,-90.1840,60.9,1111122 
LUMCON,ioos:station:LUMCON:wisl1:1,2019-04-01T21:30:00Z,29.1144,-90.1840,60.8,1111122 
LUMCON,ioos:station:LUMCON:wisl1:1,2019-04-01T21:45:00Z,29.1144,-90.1840,61.8,1111122 
LUMCON,ioos:station:LUMCON:wisl1:1,2019-04-01T22:00:00Z,29.1144,-90.1840,60.6,1111122 
LUMCON,ioos:station:LUMCON:wisl1:1,2019-04-01T22:15:00Z,29.1144,-90.1840,62.6,1111122 
LUMCON,ioos:station:LUMCON:wisl1:1,2019-04-01T22:30:00Z,29.1144,-90.1840,62.9,1111122 
LUMCON,ioos:station:LUMCON:wisl1:1,2019-04-01T22:45:00Z,29.1144,-90.1840,65.4,1111122 
LUMCON,ioos:station:LUMCON:wisl1:1,2019-04-01T23:00:00Z,29.1144,-90.1840,64.5,1111122 
LUMCON,ioos:station:LUMCON:wisl1:1,2019-04-01T23:15:00Z,29.1144,-90.1840,59.7,1111122 
LUMCON,ioos:station:LUMCON:wisl1:1,2019-04-01T23:30:00Z,29.1144,-90.1840,59.1,1111122 
LUMCON,ioos:station:LUMCON:wisl1:1,2019-04-01T23:45:00Z,29.1144,-90.1840,60.4,1111122 
LUMCON,ioos:station:LUMCON:wisl1:1,2019-04-02T00:00:00Z,29.1144,-90.1840,61.4,1111122 
LUMCON,ioos:station:LUMCON:wisl1:1,2019-04-02T00:15:00Z,29.1144,-90.1840,57.0,1111122 
LUMCON,ioos:station:LUMCON:wisl1:1,2019-04-02T00:30:00Z,29.1144,-90.1840,54.9,1111122 
LUMCON,ioos:station:LUMCON:wisl1:1,2019-04-02T00:45:00Z,29.1144,-90.1840,56.6,1111122 
LUMCON,ioos:station:LUMCON:wisl1:1,2019-04-02T01:00:00Z,29.1144,-90.1840,55.2,1111122 
LUMCON,ioos:station:LUMCON:wisl1:1,2019-04-02T01:15:00Z,29.1144,-90.1840,53.6,1111122 
LUMCON,ioos:station:LUMCON:wisl1:1,2019-04-02T01:30:00Z,29.1144,-90.1840,52.5,1111122 
LUMCON,ioos:station:LUMCON:wisl1:1,2019-04-02T01:45:00Z,29.1144,-90.1840,54.9,1111122 
LUMCON,ioos:station:LUMCON:wisl1:1,2019-04-02T02:00:00Z,29.1144,-90.1840,54.8,1111122 
LUMCON,ioos:station:LUMCON:wisl1:1,2019-04-02T02:15:00Z,29.1144,-90.1840,56.3,1111122 
LUMCON,ioos:station:LUMCON:wisl1:1,2019-04-02T02:30:00Z,29.1144,-90.1840,59.2,1111122 
LUMCON,ioos:station:LUMCON:wisl1:1,2019-04-02T02:45:00Z,29.1144,-90.1840,59.2,1111122 
LUMCON,ioos:station:LUMCON:wisl1:1,2019-04-02T03:00:00Z,29.1144,-90.1840,61.9,1111122 
LUMCON,ioos:station:LUMCON:wisl1:1,2019-04-02T03:15:00Z,29.1144,-90.1840,63.0,1111122 
LUMCON,ioos:station:LUMCON:wisl1:1,2019-04-02T03:30:00Z,29.1144,-90.1840,63.9,1111122 
LUMCON,ioos:station:LUMCON:wisl1:1,2019-04-02T03:45:00Z,29.1144,-90.1840,54.2,1111122 
LUMCON,ioos:station:LUMCON:wisl1:1,2019-04-02T04:00:00Z,29.1144,-90.1840,52.8,1111122 
LUMCON,ioos:station:LUMCON:wisl1:1,2019-04-02T04:15:00Z,29.1144,-90.1840,54.6,1111122 
LUMCON,ioos:station:LUMCON:wisl1:1,2019-04-02T04:30:00Z,29.1144,-90.1840,50.9,1111122 
LUMCON,ioos:station:LUMCON:wisl1:1,2019-04-02T04:45:00Z,29.1144,-90.1840,52.0,1111122 
LUMCON,ioos:station:LUMCON:wisl1:1,2019-04-02T05:00:00Z,29.1144,-90.1840,51.6,1111122 
LUMCON,ioos:station:LUMCON:wisl1:1,2019-04-02T05:15:00Z,29.1144,-90.1840,58.2,1111122 
LUMCON,ioos:station:LUMCON:wisl1:1,2019-04-02T05:30:00Z,29.1144,-90.1840,64.5,1111122 
LUMCON,ioos:station:LUMCON:wisl1:1,2019-04-02T05:45:00Z,29.1144,-90.1840,65.2,1111122 
LUMCON,ioos:station:LUMCON:wisl1:1,2019-04-02T06:00:00Z,29.1144,-90.1840,68.6,1111122 
LUMCON,ioos:station:LUMCON:wisl1:1,2019-04-02T06:15:00Z,29.1144,-90.1840,64.1,1111122 
LUMCON,ioos:station:LUMCON:wisl1:1,2019-04-02T06:30:00Z,29.1144,-90.1840,65.7,1111122 
LUMCON,ioos:station:LUMCON:wisl1:1,2019-04-02T06:45:00Z,29.1144,-90.1840,66.8,1111122 
LUMCON,ioos:station:LUMCON:wisl1:1,2019-04-02T07:00:00Z,29.1144,-90.1840,66.9,1111122 
LUMCON,ioos:station:LUMCON:wisl1:1,2019-04-02T07:15:00Z,29.1144,-90.1840,69.4,1111122 
LUMCON,ioos:station:LUMCON:wisl1:1,2019-04-02T07:30:00Z,29.1144,-90.1840,68.6,1111122 
LUMCON,ioos:station:LUMCON:wisl1:1,2019-04-02T07:45:00Z,29.1144,-90.1840,65.8,1111122 
LUMCON,ioos:station:LUMCON:wisl1:1,2019-04-02T08:00:00Z,29.1144,-90.1840,66.0,1111122 
LUMCON,ioos:station:LUMCON:wisl1:1,2019-04-02T08:15:00Z,29.1144,-90.1840,68.0,1111122 
LUMCON,ioos:station:LUMCON:wisl1:1,2019-04-02T08:30:00Z,29.1144,-90.1840,72.2,1111122 
LUMCON,ioos:station:LUMCON:wisl1:1,2019-04-02T08:45:00Z,29.1144,-90.1840,72.1,1111122 
LUMCON,ioos:station:LUMCON:wisl1:1,2019-04-02T09:00:00Z,29.1144,-90.1840,73.4,1111122 
LUMCON,ioos:station:LUMCON:wisl1:1,2019-04-02T09:15:00Z,29.1144,-90.1840,72.5,1111122 
LUMCON,ioos:station:LUMCON:wisl1:1,2019-04-02T09:30:00Z,29.1144,-90.1840,73.8,1111122 
LUMCON,ioos:station:LUMCON:wisl1:1,2019-04-02T09:45:00Z,29.1144,-90.1840,75.7,1111122 
LUMCON,ioos:station:LUMCON:wisl1:1,2019-04-02T10:00:00Z,29.1144,-90.1840,75.0,1111122 
LUMCON,ioos:station:LUMCON:wisl1:1,2019-04-02T10:15:00Z,29.1144,-90.1840,76.0,1111122 
LUMCON,ioos:station:LUMCON:wisl1:1,2019-04-02T10:30:00Z,29.1144,-90.1840,74.5,1111122 
LUMCON,ioos:station:LUMCON:wisl1:1,2019-04-02T10:45:00Z,29.1144,-90.1840,76.6,1111122 
LUMCON,ioos:station:LUMCON:wisl1:1,2019-04-02T11:00:00Z,29.1144,-90.1840,76.0,1111122 
LUMCON,ioos:station:LUMCON:wisl1:1,2019-04-02T11:15:00Z,29.1144,-90.1840,68.0,1111122 
LUMCON,ioos:station:LUMCON:wisl1:1,2019-04-02T11:30:00Z,29.1144,-90.1840,65.7,1111122 
LUMCON,ioos:station:LUMCON:wisl1:1,2019-04-02T11:45:00Z,29.1144,-90.1840,70.9,1111122 
LUMCON,ioos:station:LUMCON:wisl1:1,2019-04-02T12:00:00Z,29.1144,-90.1840,71.2,1111122 
LUMCON,ioos:station:LUMCON:wisl1:1,2019-04-02T12:15:00Z,29.1144,-90.1840,67.4,1111122 
LUMCON,ioos:station:LUMCON:wisl1:1,2019-04-02T12:30:00Z,29.1144,-90.1840,69.3,1111122 
LUMCON,ioos:station:LUMCON:wisl1:1,2019-04-02T12:45:00Z,29.1144,-90.1840,64.6,1111122 
LUMCON,ioos:station:LUMCON:wisl1:1,2019-04-02T13:00:00Z,29.1144,-90.1840,65.5,1111122 
LUMCON,ioos:station:LUMCON:wisl1:1,2019-04-02T13:15:00Z,29.1144,-90.1840,65.2,1111122 
LUMCON,ioos:station:LUMCON:wisl1:1,2019-04-02T13:30:00Z,29.1144,-90.1840,64.4,1111122 
LUMCON,ioos:station:LUMCON:wisl1:1,2019-04-02T13:45:00Z,29.1144,-90.1840,61.4,1111122 
LUMCON,ioos:station:LUMCON:wisl1:1,2019-04-02T14:00:00Z,29.1144,-90.1840,60.8,1111122 
LUMCON,ioos:station:LUMCON:wisl1:1,2019-04-02T14:15:00Z,29.1144,-90.1840,63.5,1111122 
LUMCON,ioos:station:LUMCON:wisl1:1,2019-04-02T14:30:00Z,29.1144,-90.1840,61.1,1111122 
LUMCON,ioos:station:LUMCON:wisl1:1,2019-04-02T14:45:00Z,29.1144,-90.1840,57.4,1111122 
LUMCON,ioos:station:LUMCON:wisl1:1,2019-04-02T15:00:00Z,29.1144,-90.1840,52.6,1111122 
LUMCON,ioos:station:LUMCON:wisl1:1,2019-04-02T15:15:00Z,29.1144,-90.1840,50.6,1111122 
LUMCON,ioos:station:LUMCON:wisl1:1,2019-04-02T15:30:00Z,29.1144,-90.1840,51.4,1111122 
LUMCON,ioos:station:LUMCON:wisl1:1,2019-04-02T15:45:00Z,29.1144,-90.1840,47.6,1111122 
LUMCON,ioos:station:LUMCON:wisl1:1,2019-04-02T16:00:00Z,29.1144,-90.1840,48.9,1111122 
LUMCON,ioos:station:LUMCON:wisl1:1,2019-04-02T16:15:00Z,29.1144,-90.1840,50.6,1111122 
LUMCON,ioos:station:LUMCON:wisl1:1,2019-04-02T16:30:00Z,29.1144,-90.1840,47.7,1111122 
LUMCON,ioos:station:LUMCON:wisl1:1,2019-04-02T16:45:00Z,29.1144,-90.1840,52.7,1111122 
LUMCON,ioos:station:LUMCON:wisl1:1,2019-04-02T17:00:00Z,29.1144,-90.1840,45.8,1111122 
LUMCON,ioos:station:LUMCON:wisl1:1,2019-04-02T17:15:00Z,29.1144,-90.1840,49.8,1111122 
LUMCON,ioos:station:LUMCON:wisl1:1,2019-04-02T17:30:00Z,29.1144,-90.1840,48.1,1111122 
LUMCON,ioos:station:LUMCON:wisl1:1,2019-04-02T17:45:00Z,29.1144,-90.1840,48.5,1111122 
LUMCON,ioos:station:LUMCON:wisl1:1,2019-04-02T18:00:00Z,29.1144,-90.1840,48.8,1111122 
LUMCON,ioos:station:LUMCON:wisl1:1,2019-04-02T18:15:00Z,29.1144,-90.1840,45.2,1111122 
LUMCON,ioos:station:LUMCON:wisl1:1,2019-04-02T18:30:00Z,29.1144,-90.1840,44.9,1111122 
LUMCON,ioos:station:LUMCON:wisl1:1,2019-04-02T18:45:00Z,29.1144,-90.1840,46.5,1111122 
LUMCON,ioos:station:LUMCON:wisl1:1,2019-04-02T19:00:00Z,29.1144,-90.1840,44.3,1111122 
LUMCON,ioos:station:LUMCON:wisl1:1,2019-04-02T19:15:00Z,29.1144,-90.1840,44.4,1111122 
LUMCON,ioos:station:LUMCON:wisl1:1,2019-04-02T19:30:00Z,29.1144,-90.1840,44.1,1111122 
LUMCON,ioos:station:LUMCON:wisl1:1,2019-04-02T19:45:00Z,29.1144,-90.1840,43.6,1111122 
LUMCON,ioos:station:LUMCON:wisl1:1,2019-04-02T20:00:00Z,29.1144,-90.1840,41.5,1111122 
LUMCON,ioos:station:LUMCON:wisl1:1,2019-04-02T20:15:00Z,29.1144,-90.1840,41.5,1111122 
LUMCON,ioos:station:LUMCON:wisl1:1,2019-04-02T20:30:00Z,29.1144,-90.1840,44.2,1111122 
LUMCON,ioos:station:LUMCON:wisl1:1,2019-04-02T20:45:00Z,29.1144,-90.1840,41.4,1111122 
LUMCON,ioos:station:LUMCON:wisl1:1,2019-04-02T21:00:00Z,29.1144,-90.1840,43.4,1111122 
LUMCON,ioos:station:LUMCON:wisl1:1,2019-04-02T21:15:00Z,29.1144,-90.1840,40.4,1111122 
LUMCON,ioos:station:LUMCON:wisl1:1,2019-04-02T21:30:00Z,29.1144,-90.1840,44.3,1111122 
LUMCON,ioos:station:LUMCON:wisl1:1,2019-04-02T21:45:00Z,29.1144,-90.1840,41.6,1111122 
LUMCON,ioos:station:LUMCON:wisl1:1,2019-04-02T22:00:00Z,29.1144,-90.1840,42.1,1111122 
LUMCON,ioos:station:LUMCON:wisl1:1,2019-04-02T22:15:00Z,29.1144,-90.1840,47.6,1111122 
LUMCON,ioos:station:LUMCON:wisl1:1,2019-04-02T22:30:00Z,29.1144,-90.1840,50.3,1111122 
LUMCON,ioos:station:LUMCON:wisl1:1,2019-04-02T22:45:00Z,29.1144,-90.1840,49.1,1111122 
LUMCON,ioos:station:LUMCON:wisl1:1,2019-04-02T23:00:00Z,29.1144,-90.1840,47.7,1111122 
LUMCON,ioos:station:LUMCON:wisl1:1,2019-04-02T23:15:00Z,29.1144,-90.1840,49.2,1111122 
LUMCON,ioos:station:LUMCON:wisl1:1,2019-04-02T23:30:00Z,29.1144,-90.1840,49.8,1111122 
LUMCON,ioos:station:LUMCON:wisl1:1,2019-04-02T23:45:00Z,29.1144,-90.1840,49.0,1111122 
LUMCON,ioos:station:LUMCON:wisl1:1,2019-04-03T00:00:00Z,29.1144,-90.1840,49.5,1111122 
LUMCON,ioos:station:LUMCON:wisl1:1,2019-04-03T00:15:00Z,29.1144,-90.1840,53.7,1111122 
LUMCON,ioos:station:LUMCON:wisl1:1,2019-04-03T00:30:00Z,29.1144,-90.1840,54.3,1111122 
LUMCON,ioos:station:LUMCON:wisl1:1,2019-04-03T00:45:00Z,29.1144,-90.1840,48.3,1111122 
LUMCON,ioos:station:LUMCON:wisl1:1,2019-04-03T01:00:00Z,29.1144,-90.1840,49.7,1111122 
LUMCON,ioos:station:LUMCON:wisl1:1,2019-04-03T01:15:00Z,29.1144,-90.1840,47.9,1111122 
LUMCON,ioos:station:LUMCON:wisl1:1,2019-04-03T01:30:00Z,29.1144,-90.1840,48.4,1111122 
LUMCON,ioos:station:LUMCON:wisl1:1,2019-04-03T01:45:00Z,29.1144,-90.1840,51.0,1111122 
LUMCON,ioos:station:LUMCON:wisl1:1,2019-04-03T02:00:00Z,29.1144,-90.1840,53.7,1111122 
LUMCON,ioos:station:LUMCON:wisl1:1,2019-04-03T02:15:00Z,29.1144,-90.1840,50.9,1111122 
LUMCON,ioos:station:LUMCON:wisl1:1,2019-04-03T02:30:00Z,29.1144,-90.1840,51.3,1111122 
LUMCON,ioos:station:LUMCON:wisl1:1,2019-04-03T02:45:00Z,29.1144,-90.1840,52.8,1111122 
LUMCON,ioos:station:LUMCON:wisl1:1,2019-04-03T03:00:00Z,29.1144,-90.1840,56.5,1111122 
LUMCON,ioos:station:LUMCON:wisl1:1,2019-04-03T03:15:00Z,29.1144,-90.1840,54.3,1111122 
LUMCON,ioos:station:LUMCON:wisl1:1,2019-04-03T03:30:00Z,29.1144,-90.1840,57.5,1111122 
LUMCON,ioos:station:LUMCON:wisl1:1,2019-04-03T03:45:00Z,29.1144,-90.1840,58.6,1111122 
LUMCON,ioos:station:LUMCON:wisl1:1,2019-04-03T04:00:00Z,29.1144,-90.1840,58.4,1111122 
LUMCON,ioos:station:LUMCON:wisl1:1,2019-04-03T04:15:00Z,29.1144,-90.1840,59.4,1111122 
LUMCON,ioos:station:LUMCON:wisl1:1,2019-04-03T04:30:00Z,29.1144,-90.1840,59.6,1111122 
LUMCON,ioos:station:LUMCON:wisl1:1,2019-04-03T04:45:00Z,29.1144,-90.1840,58.4,1111122 
LUMCON,ioos:station:LUMCON:wisl1:1,2019-04-03T05:00:00Z,29.1144,-90.1840,59.0,1111122 
LUMCON,ioos:station:LUMCON:wisl1:1,2019-04-03T05:15:00Z,29.1144,-90.1840,56.5,1111122 
LUMCON,ioos:station:LUMCON:wisl1:1,2019-04-03T05:30:00Z,29.1144,-90.1840,55.5,1111122 
LUMCON,ioos:station:LUMCON:wisl1:1,2019-04-03T05:45:00Z,29.1144,-90.1840,55.4,1111122 
LUMCON,ioos:station:LUMCON:wisl1:1,2019-04-03T06:00:00Z,29.1144,-90.1840,58.1,1111122 
LUMCON,ioos:station:LUMCON:wisl1:1,2019-04-03T06:15:00Z,29.1144,-90.1840,53.9,1111122 
LUMCON,ioos:station:LUMCON:wisl1:1,2019-04-03T06:30:00Z,29.1144,-90.1840,51.6,1111122 
LUMCON,ioos:station:LUMCON:wisl1:1,2019-04-03T06:45:00Z,29.1144,-90.1840,54.7,1111122 
LUMCON,ioos:station:LUMCON:wisl1:1,2019-04-03T07:00:00Z,29.1144,-90.1840,51.6,1111122 
LUMCON,ioos:station:LUMCON:wisl1:1,2019-04-03T07:15:00Z,29.1144,-90.1840,54.2,1111122 
LUMCON,ioos:station:LUMCON:wisl1:1,2019-04-03T07:30:00Z,29.1144,-90.1840,51.9,1111122 
LUMCON,ioos:station:LUMCON:wisl1:1,2019-04-03T07:45:00Z,29.1144,-90.1840,57.6,1111122 
LUMCON,ioos:station:LUMCON:wisl1:1,2019-04-03T08:00:00Z,29.1144,-90.1840,54.2,1111122 
LUMCON,ioos:station:LUMCON:wisl1:1,2019-04-03T16:30:00Z,29.1144,-90.1840,62.7,1111122 
LUMCON,ioos:station:LUMCON:wisl1:1,2019-04-03T16:45:00Z,29.1144,-90.1840,67.7,1111122 
LUMCON,ioos:station:LUMCON:wisl1:1,2019-04-03T17:00:00Z,29.1144,-90.1840,67.3,1111122 
LUMCON,ioos:station:LUMCON:wisl1:1,2019-04-03T17:15:00Z,29.1144,-90.1840,66.8,1111122 
LUMCON,ioos:station:LUMCON:wisl1:1,2019-04-03T17:30:00Z,29.1144,-90.1840,67.4,1111122 
LUMCON,ioos:station:LUMCON:wisl1:1,2019-04-03T17:45:00Z,29.1144,-90.1840,65.6,1111122 
LUMCON,ioos:station:LUMCON:wisl1:1,2019-04-03T18:00:00Z,29.1144,-90.1840,66.7,1111122 
LUMCON,ioos:station:LUMCON:wisl1:1,2019-04-03T18:15:00Z,29.1144,-90.1840,69.4,1111122 
LUMCON,ioos:station:LUMCON:wisl1:1,2019-04-03T18:30:00Z,29.1144,-90.1840,68.6,1111122 
LUMCON,ioos:station:LUMCON:wisl1:1,2019-04-03T18:45:00Z,29.1144,-90.1840,68.0,1111122 
LUMCON,ioos:station:LUMCON:wisl1:1,2019-04-03T19:00:00Z,29.1144,-90.1840,69.8,1111122 
LUMCON,ioos:station:LUMCON:wisl1:1,2019-04-03T19:15:00Z,29.1144,-90.1840,69.9,1111122 
LUMCON,ioos:station:LUMCON:wisl1:1,2019-04-03T19:30:00Z,29.1144,-90.1840,69.2,1111122 
LUMCON,ioos:station:LUMCON:wisl1:1,2019-04-03T19:45:00Z,29.1144,-90.1840,71.5,1111122 
LUMCON,ioos:station:LUMCON:wisl1:1,2019-04-03T20:00:00Z,29.1144,-90.1840,71.9,1111122 
LUMCON,ioos:station:LUMCON:wisl1:1,2019-04-03T20:15:00Z,29.1144,-90.1840,71.4,1111122 
LUMCON,ioos:station:LUMCON:wisl1:1,2019-04-03T20:30:00Z,29.1144,-90.1840,72.4,1111122 
LUMCON,ioos:station:LUMCON:wisl1:1,2019-04-03T20:45:00Z,29.1144,-90.1840,70.7,1111122 
LUMCON,ioos:station:LUMCON:wisl1:1,2019-04-03T21:00:00Z,29.1144,-90.1840,68.2,1111122 
LUMCON,ioos:station:LUMCON:wisl1:1,2019-04-03T21:15:00Z,29.1144,-90.1840,67.9,1111122 
LUMCON,ioos:station:LUMCON:wisl1:1,2019-04-03T21:30:00Z,29.1144,-90.1840,71.1,1111122 
LUMCON,ioos:station:LUMCON:wisl1:1,2019-04-03T21:45:00Z,29.1144,-90.1840,71.2,1111122 
LUMCON,ioos:station:LUMCON:wisl1:1,2019-04-03T22:00:00Z,29.1144,-90.1840,70.3,1111122 
LUMCON,ioos:station:LUMCON:wisl1:1,2019-04-03T22:15:00Z,29.1144,-90.1840,69.9,1111122 
LUMCON,ioos:station:LUMCON:wisl1:1,2019-04-03T22:30:00Z,29.1144,-90.1840,73.4,1111122 
LUMCON,ioos:station:LUMCON:wisl1:1,2019-04-03T22:45:00Z,29.1144,-90.1840,73.1,1111122 
LUMCON,ioos:station:LUMCON:wisl1:1,2019-04-03T23:00:00Z,29.1144,-90.1840,73.3,1111122 
LUMCON,ioos:station:LUMCON:wisl1:1,2019-04-03T23:15:00Z,29.1144,-90.1840,73.3,1111122 
LUMCON,ioos:station:LUMCON:wisl1:1,2019-04-03T23:30:00Z,29.1144,-90.1840,74.2,1111122 
LUMCON,ioos:station:LUMCON:wisl1:1,2019-04-03T23:45:00Z,29.1144,-90.1840,76.3,1111122 
LUMCON,ioos:station:LUMCON:wisl1:1,2019-04-04T00:00:00Z,29.1144,-90.1840,77.7,1111122 
LUMCON,ioos:station:LUMCON:wisl1:1,2019-04-04T00:15:00Z,29.1144,-90.1840,78.9,1111122 
LUMCON,ioos:station:LUMCON:wisl1:1,2019-04-04T00:30:00Z,29.1144,-90.1840,79.5,1111122 
LUMCON,ioos:station:LUMCON:wisl1:1,2019-04-04T00:45:00Z,29.1144,-90.1840,80.2,1111122 
LUMCON,ioos:station:LUMCON:wisl1:1,2019-04-04T01:00:00Z,29.1144,-90.1840,79.2,1111122 
LUMCON,ioos:station:LUMCON:wisl1:1,2019-04-04T01:15:00Z,29.1144,-90.1840,79.7,1111122 
LUMCON,ioos:station:LUMCON:wisl1:1,2019-04-04T01:30:00Z,29.1144,-90.1840,79.6,1111122 
LUMCON,ioos:station:LUMCON:wisl1:1,2019-04-04T01:45:00Z,29.1144,-90.1840,78.7,1111122 
LUMCON,ioos:station:LUMCON:wisl1:1,2019-04-04T02:00:00Z,29.1144,-90.1840,79.9,1111122 
LUMCON,ioos:station:LUMCON:wisl1:1,2019-04-04T02:15:00Z,29.1144,-90.1840,80.7,1111122 
LUMCON,ioos:station:LUMCON:wisl1:1,2019-04-04T02:30:00Z,29.1144,-90.1840,81.4,1111122 
LUMCON,ioos:station:LUMCON:wisl1:1,2019-04-04T02:45:00Z,29.1144,-90.1840,81.7,1111122 
LUMCON,ioos:station:LUMCON:wisl1:1,2019-04-04T03:00:00Z,29.1144,-90.1840,80.0,1111122 
LUMCON,ioos:station:LUMCON:wisl1:1,2019-04-04T03:15:00Z,29.1144,-90.1840,80.5,1111122 
LUMCON,ioos:station:LUMCON:wisl1:1,2019-04-04T03:30:00Z,29.1144,-90.1840,80.4,1111122 
LUMCON,ioos:station:LUMCON:wisl1:1,2019-04-04T03:45:00Z,29.1144,-90.1840,79.6,1111122 
LUMCON,ioos:station:LUMCON:wisl1:1,2019-04-04T04:00:00Z,29.1144,-90.1840,80.4,1111122 
LUMCON,ioos:station:LUMCON:wisl1:1,2019-04-04T04:15:00Z,29.1144,-90.1840,81.6,1111122 
LUMCON,ioos:station:LUMCON:wisl1:1,2019-04-04T04:30:00Z,29.1144,-90.1840,81.6,1111122 
LUMCON,ioos:station:LUMCON:wisl1:1,2019-04-04T04:45:00Z,29.1144,-90.1840,82.3,1111122 